Weather History for Valparaiso, FL

Change the Weather History Date:

Wednesday, October 3, 2012

  Actual Average Record
Temperature  
Mean Temperature 70 °F -  
Max Temperature 81 °F 84 °F 94 °F (1954)
Min Temperature 61 °F 57 °F 37 °F (1984)
Cooling Degree Days 5    
Growing Degree Days 20 (Base 50)    
Moisture  
Dew Point 60 °F    
Average Humidity 71    
Maximum Humidity 89    
Minimum Humidity 51    
Precipitation  
Precipitation 0.00 in - - ()
Sea Level Pressure  
Sea Level Pressure 30.10 in    
Wind  
Wind Speed 5 mph (NE)    
Max Wind Speed 8 mph    
Max Gust Speed -    
Visibility 10 miles    
Events      
Averages and records for this station are not official NWS values.
T = Trace of Precipitation, MM = Missing Value Source: NWS Daily Summary

Daily Weather History Graph

Daily Weather History Graph

Search for Another Location

Airport:

Trip Planner

Search our weather history database for the weather conditions in past years. The results will help you decide how hot, cold, wet, or windy it might be!

Date:

Astronomy

Oct. 03, 2012 Rise Set
Actual Time 6:41 AM CDT 6:28 PM CDT
Civil Twilight 6:17 AM CDT 6:52 PM CDT
Nautical Twilight 5:49 AM CDT 7:20 PM CDT
Astronomical Twilight 5:21 AM CDT 7:48 PM CDT
Moon 8:37 PM CDT (10/3) 9:47 AM CDT (10/3)
Length of Visible Light 12h 35m
Length of Day
11h 47m
Waning Gibbous, 88% of the Moon is Illuminated
Oct 3
Waning Gibbous
Oct 8
Last Quarter
Oct 15
New
Oct 21
First Quarter
Oct 29
Full

Hourly Weather History & Observations

Time (CDT) Temp. Dew Point Humidity Pressure Visibility Wind Dir Wind Speed Gust Speed Precip Events Conditions
12:56 AM 63.3 °F 59.5 °F 87% 30.04 in 10.0 mi North 4.6 mph - N/A   Partly Cloudy
1:56 AM 63.3 °F 59.2 °F 86% 30.04 in 10.0 mi North 3.5 mph - N/A   Mostly Cloudy
2:58 AM 62.6 °F 58.5 °F 86% 30.02 in 10.0 mi North 5.8 mph - N/A   Mostly Cloudy
3:56 AM 62.2 °F 58.3 °F 87% 30.04 in 10.0 mi NNW 3.5 mph - N/A   Partly Cloudy
4:57 AM 61.9 °F 58.3 °F 88% 30.06 in 10.0 mi North 3.5 mph - N/A   Scattered Clouds
5:55 AM 61.2 °F 57.9 °F 89% 30.06 in 10.0 mi North 2.3 mph - N/A   Scattered Clouds
6:56 AM 61.3 °F 57.7 °F 88% 30.09 in 10.0 mi North 3.5 mph - N/A   Mostly Cloudy
7:55 AM 65.8 °F 56.8 °F 73% 30.10 in 10.0 mi Variable 3.5 mph - N/A   Mostly Cloudy
8:55 AM 70.7 °F 59.2 °F 67% 30.12 in 10.0 mi NE 5.8 mph - N/A   Mostly Cloudy
9:55 AM 71.6 °F 59.7 °F 66% 30.13 in 10.0 mi NNE 5.8 mph - N/A   Mostly Cloudy
10:55 AM 72.7 °F 60.4 °F 65% 30.13 in 10.0 mi NE 5.8 mph - N/A   Mostly Cloudy
11:55 AM 74.5 °F 60.4 °F 61% 30.13 in 10.0 mi NE 5.8 mph - N/A   Mostly Cloudy
12:56 PM 76.6 °F 60.3 °F 57% 30.12 in 10.0 mi NNE 8.1 mph - N/A   Mostly Cloudy
1:55 PM 77.4 °F 60.6 °F 56% 30.10 in 10.0 mi NE 8.1 mph - N/A   Mostly Cloudy
2:55 PM 78.3 °F 59.9 °F 53% 30.09 in 10.0 mi ENE 5.8 mph - N/A   Mostly Cloudy
3:58 PM 79.7 °F 60.1 °F 51% 30.09 in 10.0 mi ENE 5.8 mph - N/A   Mostly Cloudy
4:58 PM 79.2 °F 60.3 °F 52% 30.09 in 10.0 mi East 6.9 mph - N/A   Mostly Cloudy
5:57 PM 77.2 °F 62.2 °F 60% 30.10 in 10.0 mi ENE 5.8 mph - N/A   Mostly Cloudy
6:56 PM 75.0 °F 63.0 °F 66% 30.12 in 10.0 mi ENE 4.6 mph - N/A   Mostly Cloudy
7:55 PM 73.6 °F 63.3 °F 70% 30.12 in 10.0 mi NE 4.6 mph - N/A   Mostly Cloudy
8:55 PM 72.1 °F 63.3 °F 74% 30.14 in 10.0 mi NNE 4.6 mph - N/A   Mostly Cloudy
9:55 PM 71.2 °F 62.2 °F 73% 30.15 in 10.0 mi NNE 4.6 mph - N/A   Mostly Cloudy
10:57 PM 70.9 °F 62.8 °F 75% 30.14 in 10.0 mi ENE 5.8 mph - N/A   Mostly Cloudy
11:56 PM 68.9 °F 63.5 °F 83% 30.16 in 10.0 mi NE 5.8 mph - N/A   Mostly Cloudy